UTA806 UZTT-UUWW

Flight info

Callsign UTA806
Flight time N/A
Altitude 34000
Route N0460F340 MIKNO L163 SIVKO M166 ARISA L736 OLOPI
Aircraft B738/M-VGDW/C

Departure

Time 2026-04-30 14:37
Airport Tashkent International Airport (UZTT)

Arrival

Time N/A
Airport Vnukovo International Airport (UUWW)
Time Latitude Longitude Altitude Speed Heading
2026-04-30 14:20 41.26000 69.26955 1387 ft 0 kts 151°
2026-04-30 14:25 41.26040 69.26934 1386 ft 4 kts 176°
2026-04-30 14:25 41.26070 69.26949 1382 ft 1 kts 247°
2026-04-30 14:28 41.26067 69.26939 1382 ft 2 kts 247°
2026-04-30 14:28 41.26053 69.26898 1386 ft 5 kts 247°
2026-04-30 14:29 41.26030 69.26826 1387 ft 8 kts 246°
2026-04-30 14:29 41.25959 69.26610 1387 ft 11 kts 246°
2026-04-30 14:30 41.25802 69.26454 1401 ft 11 kts 208°
2026-04-30 14:31 41.25639 69.26476 1401 ft 12 kts 133°
2026-04-30 14:31 41.25520 69.26592 1399 ft 14 kts 140°
2026-04-30 14:31 41.25504 69.26748 1403 ft 14 kts 81°
2026-04-30 14:32 41.25521 69.26908 1406 ft 13 kts 82°
2026-04-30 14:32 41.25538 69.27065 1402 ft 13 kts 82°
2026-04-30 14:32 41.25558 69.27248 1402 ft 17 kts 82°
2026-04-30 14:33 41.25576 69.27412 1402 ft 19 kts 82°
2026-04-30 14:33 41.25612 69.27748 1400 ft 26 kts 81°
2026-04-30 14:33 41.25651 69.28077 1403 ft 29 kts 81°
2026-04-30 14:34 41.25682 69.28352 1400 ft 31 kts 81°
2026-04-30 14:34 41.25692 69.28448 1404 ft 32 kts 82°
2026-04-30 14:35 41.25853 69.29902 1405 ft 23 kts 82°
2026-04-30 14:35 41.25876 69.30109 1399 ft 22 kts 81°
2026-04-30 14:36 41.25922 69.30296 1404 ft 18 kts 53°
2026-04-30 14:36 41.25909 69.30383 1409 ft 10 kts 220°
2026-04-30 14:36 41.25893 69.30289 1401 ft 13 kts 262°
2026-04-30 14:36 41.25855 69.29930 1399 ft 74 kts 262°
2026-04-30 14:37 41.25747 69.28948 1398 ft 139 kts 261°
2026-04-30 14:37 41.25598 69.27437 1464 ft 186 kts 264°
2026-04-30 14:37 41.25413 69.25706 2205 ft 187 kts 261°
2026-04-30 14:37 41.25208 69.23980 2989 ft 193 kts 262°
2026-04-30 14:38 41.25005 69.22207 3723 ft 197 kts 262°
2026-04-30 14:38 41.24792 69.20301 3962 ft 219 kts 262°
2026-04-30 14:38 41.24561 69.18219 4194 ft 235 kts 262°
2026-04-30 14:38 41.24331 69.16031 4646 ft 242 kts 263°
2026-04-30 14:39 41.24131 69.13788 5206 ft 246 kts 263°
2026-04-30 14:39 41.24074 69.11529 5905 ft 246 kts 282°
2026-04-30 14:39 41.24794 69.09483 6518 ft 249 kts 311°
2026-04-30 14:40 41.28156 69.07711 7161 ft 281 kts 352°
2026-04-30 14:40 41.30087 69.07392 7779 ft 285 kts 352°
2026-04-30 14:40 41.32061 69.07057 8473 ft 287 kts 351°
2026-04-30 14:40 41.33952 69.06246 9122 ft 289 kts 327°
2026-04-30 14:41 41.35579 69.04675 9831 ft 290 kts 322°
2026-04-30 14:41 41.37185 69.03006 10353 ft 298 kts 321°
2026-04-30 14:41 41.38872 69.01234 10497 ft 319 kts 321°
2026-04-30 14:41 41.40668 68.99350 10654 ft 339 kts 321°
2026-04-30 14:42 41.42578 68.97355 10857 ft 356 kts 321°
2026-04-30 14:42 41.44549 68.95305 11320 ft 362 kts 321°
2026-04-30 14:42 41.46543 68.93235 11947 ft 364 kts 321°
2026-04-30 14:42 41.48547 68.91157 12580 ft 366 kts 322°
2026-04-30 14:43 41.50565 68.89063 13168 ft 369 kts 322°
2026-04-30 14:43 41.52600 68.86952 13756 ft 372 kts 322°
2026-04-30 14:43 41.54653 68.84820 14264 ft 376 kts 322°
2026-04-30 14:43 41.56725 68.82666 14766 ft 379 kts 322°
2026-04-30 14:44 41.58814 68.80493 15274 ft 382 kts 322°
2026-04-30 14:44 41.60920 68.78300 15782 ft 386 kts 322°
2026-04-30 14:44 41.63050 68.76081 16287 ft 389 kts 322°
2026-04-30 14:44 41.65189 68.73850 16783 ft 392 kts 322°
2026-04-30 14:45 41.67349 68.71595 17272 ft 395 kts 322°
2026-04-30 14:45 41.69527 68.69319 17757 ft 399 kts 322°
2026-04-30 14:45 41.71723 68.67023 18215 ft 402 kts 322°
2026-04-30 14:45 41.73907 68.64737 18626 ft 405 kts 322°
2026-04-30 14:46 41.76138 68.62400 19073 ft 407 kts 321°
2026-04-30 14:46 41.78373 68.60056 19518 ft 409 kts 321°
2026-04-30 14:46 41.80620 68.57697 19956 ft 412 kts 321°
2026-04-30 14:46 41.82115 68.56128 20236 ft 413 kts 321°
2026-04-30 14:47 41.85155 68.52931 20795 ft 417 kts 321°
2026-04-30 14:47 41.87372 68.50417 21183 ft 418 kts 311°
2026-04-30 14:47 41.89122 68.47300 21586 ft 419 kts 303°
2026-04-30 14:47 41.90773 68.44061 22000 ft 421 kts 303°
2026-04-30 14:48 41.92433 68.40807 22377 ft 424 kts 303°
2026-04-30 14:48 41.94116 68.37544 22748 ft 426 kts 303°
2026-04-30 14:48 41.95821 68.34269 23124 ft 429 kts 304°
2026-04-30 14:48 41.97542 68.30987 23477 ft 431 kts 304°
2026-04-30 14:49 41.99277 68.27683 23778 ft 433 kts 304°
2026-04-30 14:49 42.00996 68.24405 23847 ft 437 kts 304°
2026-04-30 14:49 42.02747 68.21063 23850 ft 436 kts 304°
2026-04-30 14:49 42.04586 68.17826 23873 ft 438 kts 309°
2026-04-30 14:50 42.08755 68.11783 24491 ft 441 kts 313°
2026-04-30 14:50 42.10894 68.08825 24841 ft 441 kts 313°
2026-04-30 14:51 42.15169 68.02824 25401 ft 446 kts 311°
2026-04-30 14:51 42.16582 68.00807 25576 ft 447 kts 311°
2026-04-30 14:51 42.20848 67.94647 26128 ft 451 kts 311°
2026-04-30 14:52 42.22987 67.91537 26404 ft 453 kts 311°
2026-04-30 14:52 42.27287 67.85271 26907 ft 457 kts 311°
2026-04-30 14:52 42.29450 67.82115 27158 ft 458 kts 310°
2026-04-30 14:53 42.33798 67.75766 27642 ft 462 kts 310°
2026-04-30 14:53 42.35987 67.72564 27878 ft 464 kts 310°
2026-04-30 14:54 42.40381 67.66128 28342 ft 467 kts 310°
2026-04-30 14:54 42.44773 67.59679 28878 ft 469 kts 310°
2026-04-30 14:55 42.49178 67.53198 29596 ft 466 kts 310°
2026-04-30 14:55 42.51373 67.49962 29880 ft 466 kts 310°
2026-04-30 14:55 42.55757 67.43490 30393 ft 465 kts 309°
2026-04-30 14:56 42.60122 67.37028 30944 ft 463 kts 309°
2026-04-30 14:56 42.64462 67.30576 31443 ft 462 kts 309°
2026-04-30 14:57 42.66627 67.27352 31704 ft 462 kts 309°
2026-04-30 14:57 42.70951 67.20901 32185 ft 461 kts 309°
2026-04-30 14:58 42.75260 67.14461 32657 ft 459 kts 309°
2026-04-30 14:58 42.77408 67.11244 32890 ft 459 kts 308°
2026-04-30 14:58 42.81696 67.04814 33345 ft 458 kts 308°
2026-04-30 14:59 42.85964 66.98399 33783 ft 457 kts 308°
2026-04-30 15:00 42.92384 66.88719 33804 ft 458 kts 308°
2026-04-30 15:01 43.00840 66.75929 33806 ft 453 kts 308°
2026-04-30 15:01 43.07171 66.66363 33805 ft 451 kts 308°
2026-04-30 15:02 43.11380 66.59984 33808 ft 452 kts 308°
2026-04-30 15:03 43.21945 66.43903 33801 ft 457 kts 308°
2026-04-30 15:04 43.32549 66.27612 33797 ft 460 kts 308°
2026-04-30 15:06 43.43212 66.11137 33803 ft 461 kts 308°
2026-04-30 15:07 43.51716 65.97931 33801 ft 460 kts 307°
2026-04-30 15:08 43.60172 65.84738 33806 ft 458 kts 307°
2026-04-30 15:09 43.70672 65.68271 33806 ft 457 kts 307°
2026-04-30 15:10 43.79069 65.55033 33800 ft 458 kts 307°
2026-04-30 15:11 43.91669 65.35054 33812 ft 460 kts 307°
2026-04-30 15:13 44.02158 65.18315 33810 ft 461 kts 307°
2026-04-30 15:14 44.16872 64.94665 33816 ft 462 kts 307°
2026-04-30 15:17 44.35747 64.64127 33822 ft 461 kts 307°
2026-04-30 15:19 44.52377 64.36798 33832 ft 462 kts 306°